GW6489 Weather Reports


Display with metric or nautical units.
time (UTC)temp
F
wind
direction
speed
MPH
gust
MPH
rain 1hr
in
rain 24hr
in
rain mn
in
humidity
%
barometer
mb
20260509222326 73 292 1.0 4.0 0.00 0.00 0.00 43 983.9
20260509221821 73 259 2.0 3.0 0.00 0.00 0.00 41 984.1
20260509221319 73 295 1.0 4.0 0.00 0.00 0.00 42 984.0
20260509220819 73 290 2.0 2.0 0.00 0.00 0.00 43 984.0
20260509220315 74 285 2.0 7.0 0.00 0.00 0.00 40 983.9
20260509215811 74 274 1.0 2.0 0.00 0.00 0.00 42 984.0
20260509215308 0 0.0 0.0 0.00 0.00 0.00 983.9
20260509214805 0 0.0 0.0 0.00 0.00 0.00 983.9
20260509214302 0 0.0 0.0 0.00 0.00 0.00 983.7
20260509213759 0 0.0 0.0 0.00 0.00 0.00 983.8
20260509213255 0 0.0 0.0 0.00 0.00 0.00 983.8
20260509212752 0 0.0 0.0 0.00 0.00 0.00 983.7
20260509212250 0 0.0 0.0 0.00 0.00 0.00 983.7
20260509211745 74 99 1.0 1.0 0.00 0.00 0.00 38 983.7
20260509211241 74 99 1.0 1.0 0.00 0.00 0.00 38 983.7
20260509210738 74 99 0.0 0.0 0.00 0.00 0.00 39 983.8
20260509210236 74 99 1.0 1.0 0.00 0.00 0.00 38 983.6
20260509205735 74 95 2.0 2.0 0.00 0.00 0.00 38 983.7
20260509205230 74 92 2.0 2.0 0.00 0.00 0.00 40 983.7
20260509204726 74 59 2.0 3.0 0.00 0.00 0.00 40 983.4
20260509204223 74 13 3.0 4.0 0.00 0.00 0.00 40 983.5
20260509203718 74 25 3.0 6.0 0.00 0.00 0.00 40 983.3
20260509203217 74 14 0.0 1.0 0.00 0.00 0.00 40 983.3
20260509202712 73 82 1.0 2.0 0.00 0.00 0.00 40 983.6
20260509202207 74 96 1.0 1.0 0.00 0.00 0.00 40 983.4
20260509201703 74 83 1.0 3.0 0.00 0.00 0.00 39 983.6
20260509201200 74 74 2.0 3.0 0.00 0.00 0.00 38 983.4
20260509200656 74 104 1.0 2.0 0.00 0.00 0.00 38 983.6
20260509200151 74 107 2.0 2.0 0.00 0.00 0.00 38 983.3
20260509195647 74 88 2.0 3.0 0.00 0.00 0.00 38 983.6
20260509195143 74 44 3.0 4.0 0.00 0.00 0.00 40 983.5
20260509194643 74 66 1.0 2.0 0.00 0.00 0.00 40 983.7
20260509194140 74 94 1.0 2.0 0.00 0.00 0.00 41 983.7
20260509193636 74 86 1.0 2.0 0.00 0.00 0.00 42 983.7
20260509193131 74 91 1.0 3.0 0.00 0.00 0.00 41 984.1
20260509192628 74 25 0.0 2.0 0.00 0.00 0.00 41 983.9
20260509192124 74 69 2.0 2.0 0.00 0.00 0.00 42 984.0
20260509191623 74 45 2.0 4.0 0.00 0.00 0.00 42 984.0
20260509191121 74 116 2.0 4.0 0.00 0.00 0.00 42 984.0
20260509190617 74 55 1.0 1.0 0.00 0.00 0.00 41 984.1
20260509190115 73 87 2.0 2.0 0.00 0.00 0.00 42 984.2
20260509185612 73 87 2.0 2.0 0.00 0.00 0.00 42 984.2
20260509185108 73 12 2.0 4.0 0.00 0.00 0.00 42 984.0
20260509184606 73 90 2.0 3.0 0.00 0.00 0.00 43 984.3
20260509184103 73 23 5.0 9.0 0.00 0.00 0.00 43 984.5
20260509183558 74 29 8.0 10.0 0.00 0.00 0.00 42 984.3
20260509183054 74 84 2.0 3.0 0.00 0.00 0.00 40 984.3
20260509182550 74 81 0.0 1.0 0.00 0.00 0.00 41 984.5
20260509182047 73 110 1.0 3.0 0.00 0.00 0.00 41 984.7
20260509181546 72 73 2.0 3.0 0.00 0.00 0.00 44 984.8
20260509181042 72 104 1.0 1.0 0.00 0.00 0.00 45 985.0
20260509180538 70 62 2.0 4.0 0.00 0.00 0.00 50 984.9
20260509180036 69 44 0.0 2.0 0.00 0.00 0.00 49 985.1
20260509175531 69 56 1.0 2.0 0.00 0.00 0.00 49 985.3
20260509175028 70 15 3.0 4.0 0.00 0.00 0.00 45 985.4
20260509174525 71 62 1.0 2.0 0.00 0.00 0.00 46 985.6
20260509174020 70 31 3.0 3.0 0.00 0.00 0.00 46 985.3
20260509173514 71 41 4.0 6.0 0.00 0.00 0.00 43 985.1
20260509173011 69 56 1.0 4.0 0.00 0.00 0.00 46 985.2
20260509172508 69 63 1.0 1.0 0.00 0.00 0.00 44 985.2
20260509172004 70 30 4.0 6.0 0.00 0.00 0.00 45 985.4
20260509171500 69 39 3.0 4.0 0.00 0.00 0.00 45 985.4
20260509170956 69 310 2.0 4.0 0.00 0.00 0.00 44 985.6
20260509170452 70 38 3.0 6.0 0.00 0.00 0.00 46 985.6
20260509165948 70 46 1.0 2.0 0.00 0.00 0.00 45 985.6
20260509165447 70 30 0.0 2.0 0.00 0.00 0.00 45 985.8
20260509164943 70 85 2.0 2.0 0.00 0.00 0.00 44 985.9
20260509164439 71 96 1.0 1.0 0.00 0.00 0.00 44 985.7
20260509163935 70 125 0.0 1.0 0.00 0.00 0.00 42 985.7
20260509163433 70 248 1.0 2.0 0.00 0.00 0.00 41 985.8
20260509162931 71 87 1.0 1.0 0.00 0.00 0.00 42 985.6
20260509162431 71 87 0.0 1.0 0.00 0.00 0.00 42 985.6
20260509161926 70 86 1.0 1.0 0.00 0.00 0.00 41 985.7
20260509161423 71 97 2.0 2.0 0.00 0.00 0.00 39 985.6
20260509160918 71 19 1.0 2.0 0.00 0.00 0.00 40 985.6
20260509160414 70 86 1.0 1.0 0.00 0.00 0.00 39 985.5
20260509155909 70 13 2.0 3.0 0.00 0.00 0.00 41 985.5
20260509155406 70 94 0.0 2.0 0.00 0.00 0.00 41 985.8
20260509154903 69 358 0.0 1.0 0.00 0.00 0.00 42 985.5
20260509154359 69 31 0.0 1.0 0.00 0.00 0.00 45 985.6
20260509153856 69 16 1.0 3.0 0.00 0.00 0.00 46 985.3
20260509153353 70 19 2.0 3.0 0.00 0.00 0.00 46 985.1
20260509152850 70 24 1.0 1.0 0.00 0.00 0.00 45 985.5
20260509152346 70 45 0.0 1.0 0.00 0.00 0.00 46 985.7
20260509151843 70 87 0.0 1.0 0.00 0.00 0.00 44 985.5
20260509151339 70 234 2.0 2.0 0.00 0.00 0.00 46 985.7
20260509150838 70 45 0.0 1.0 0.00 0.00 0.00 45 985.9
20260509150335 69 31 0.0 1.0 0.00 0.00 0.00 47 985.8
20260509145832 69 89 2.0 2.0 0.00 0.00 0.00 47 985.8
20260509145327 69 89 0.0 1.0 0.00 0.00 0.00 48 986.0
20260509144824 68 159 1.0 3.0 0.00 0.00 0.00 48 986.1
20260509144321 68 99 1.0 3.0 0.00 0.00 0.00 48 985.8
20260509143818 68 83 1.0 1.0 0.00 0.00 0.00 48 985.9
20260509143315 68 96 0.0 4.0 0.00 0.00 0.00 47 986.1
20260509142811 67 69 0.0 1.0 0.00 0.00 0.00 47 986.0
20260509142307 67 72 1.0 1.0 0.00 0.00 0.00 49 986.2
20260509141803 66 85 1.0 2.0 0.00 0.00 0.00 48 986.3
20260509141300 65 81 1.0 2.0 0.00 0.00 0.00 50 986.2
20260509140757 65 92 0.0 4.0 0.00 0.00 0.00 50 986.5
20260509140254 64 92 1.0 1.0 0.00 0.00 0.00 51 986.3
20260509135752 64 87 1.0 2.0 0.00 0.00 0.00 50 986.5
20260509135249 64 59 0.0 1.0 0.00 0.00 0.00 51 986.5
20260509134746 64 43 0.0 1.0 0.00 0.00 0.00 52 986.7
20260509134243 63 89 2.0 2.0 0.00 0.00 0.00 51 986.9
20260509133740 62 86 0.0 1.0 0.00 0.00 0.00 53 987.1
20260509133237 62 86 1.0 1.0 0.00 0.00 0.00 52 986.9
20260509132736 62 86 1.0 2.0 0.00 0.00 0.00 52 986.9
20260509132234 61 63 0.0 1.0 0.00 0.00 0.00 53 986.8
20260509131730 61 343 0.0 1.0 0.00 0.00 0.00 53 986.9
20260509131227 61 260 0.0 1.0 0.00 0.00 0.00 51 986.8
20260509130723 61 260 1.0 2.0 0.00 0.00 0.00 52 986.6
20260509130219 60 260 0.0 0.0 0.00 0.00 0.00 54 986.6
20260509125715 60 260 0.0 1.0 0.00 0.00 0.00 58 986.6
20260509125213 59 353 0.0 0.0 0.00 0.00 0.00 55 986.7
20260509124709 59 353 0.0 0.0 0.00 0.00 0.00 58 986.7
20260509124206 58 353 0.0 0.0 0.00 0.00 0.00 58 986.6
20260509123704 58 352 0.0 0.0 0.00 0.00 0.00 58 986.8
20260509123201 58 352 0.0 1.0 0.00 0.00 0.00 59 986.6
20260509122656 58 4 1.0 1.0 0.00 0.00 0.00 59 986.7
20260509122153 58 97 0.0 1.0 0.00 0.00 0.00 60 986.9
20260509121650 58 97 0.0 0.0 0.00 0.00 0.00 59 987.0
20260509121148 57 97 0.0 0.0 0.00 0.00 0.00 61 986.7
20260509120646 57 97 0.0 0.0 0.00 0.00 0.00 60 987.0
20260509120143 57 97 0.0 0.0 0.00 0.00 0.00 61 986.9
20260509115640 57 97 0.0 0.0 0.00 0.00 0.00 55 986.8
20260509115138 57 97 0.0 0.0 0.00 0.00 0.00 55 987.0
20260509114636 57 97 0.0 0.0 0.00 0.00 0.00 55 986.8
20260509114135 57 97 1.0 1.0 0.00 0.00 0.00 54 986.8
20260509113633 57 97 0.0 0.0 0.00 0.00 0.00 55 986.9
20260509113130 57 97 1.0 1.0 0.00 0.00 0.00 54 986.8
20260509112626 57 97 1.0 1.0 0.00 0.00 0.00 53 986.9
20260509112124 57 97 0.0 0.0 0.00 0.00 0.00 54 986.7
20260509111620 57 97 0.0 1.0 0.00 0.00 0.00 54 986.5
20260509111117 56 97 0.0 0.0 0.00 0.00 0.00 55 986.8
20260509110614 56 97 0.0 0.0 0.00 0.00 0.00 56 986.6
20260509110112 56 97 0.0 0.0 0.00 0.00 0.00 55 986.6
20260509105610 56 97 0.0 1.0 0.00 0.00 0.00 54 986.7
20260509105107 56 97 0.0 0.0 0.00 0.00 0.00 54 986.6
20260509104603 56 97 0.0 1.0 0.00 0.00 0.00 54 986.6
20260509104100 56 97 0.0 1.0 0.00 0.00 0.00 55 986.6
20260509103558 56 97 0.0 1.0 0.00 0.00 0.00 54 986.5
20260509103056 56 97 1.0 1.0 0.00 0.00 0.00 54 986.5
20260509102553 56 97 1.0 1.0 0.00 0.00 0.00 54 986.5
20260509102050 56 97 1.0 1.0 0.00 0.00 0.00 54 986.7
20260509101546 56 97 0.0 1.0 0.00 0.00 0.00 55 986.6
20260509101043 56 97 1.0 1.0 0.00 0.00 0.00 55 986.7
20260509100540 56 97 1.0 1.0 0.00 0.00 0.00 56 986.7
20260509100038 56 97 1.0 1.0 0.00 0.00 0.00 55 986.6
20260509095534 56 97 0.0 1.0 0.00 0.00 0.00 56 986.8
20260509095032 56 97 1.0 1.0 0.00 0.00 0.00 55 986.5
20260509094528 56 97 0.0 1.0 0.00 0.00 0.00 55 986.5
20260509094025 56 97 1.0 1.0 0.00 0.00 0.00 54 986.5
20260509093523 56 97 1.0 1.0 0.00 0.00 0.00 54 986.7
20260509093021 56 97 1.0 1.0 0.00 0.00 0.00 53 986.7
20260509092518 57 97 1.0 1.0 0.00 0.00 0.00 53 986.8
20260509092017 57 97 1.0 1.0 0.00 0.00 0.00 53 986.9
20260509091514 57 97 2.0 2.0 0.00 0.00 0.00 52 986.7
20260509091010 57 97 1.0 2.0 0.00 0.00 0.00 52 986.7
20260509090508 57 97 0.0 1.0 0.00 0.00 0.00 52 986.6
20260509090006 57 97 1.0 1.0 0.00 0.00 0.00 52 986.3
20260509085502 57 97 1.0 1.0 0.00 0.00 0.00 52 986.4
20260509084958 57 97 1.0 1.0 0.00 0.00 0.00 52 986.7
20260509084455 57 97 1.0 2.0 0.00 0.00 0.00 52 986.8
20260509083953 57 97 1.0 1.0 0.00 0.00 0.00 52 986.7
20260509083450 57 97 1.0 2.0 0.00 0.00 0.00 51 986.7
20260509082946 57 97 0.0 0.0 0.00 0.00 0.00 51 986.8
20260509082444 57 97 0.0 1.0 0.00 0.00 0.00 50 986.9
20260509081941 57 97 1.0 1.0 0.00 0.00 0.00 51 986.8
20260509081438 57 97 1.0 1.0 0.00 0.00 0.00 51 987.0
20260509080935 57 97 1.0 1.0 0.00 0.00 0.00 50 986.8
20260509080433 57 97 0.0 1.0 0.00 0.00 0.00 50 986.9
20260509075931 57 97 1.0 1.0 0.00 0.00 0.00 51 986.9
20260509075428 57 97 1.0 1.0 0.00 0.00 0.00 51 986.9
20260509074926 57 97 1.0 1.0 0.00 0.00 0.00 51 986.8
20260509074423 57 97 0.0 1.0 0.00 0.00 0.00 51 987.0
20260509073919 57 97 1.0 1.0 0.00 0.00 0.00 51 987.0
20260509073416 57 97 0.0 1.0 0.00 0.00 0.00 51 987.0
20260509072912 57 97 0.0 0.0 0.00 0.00 0.00 51 987.2
20260509072409 57 97 1.0 1.0 0.00 0.00 0.00 51 987.1
20260509071905 57 97 1.0 1.0 0.00 0.00 0.00 51 987.2
20260509071402 57 97 1.0 1.0 0.00 0.00 0.00 51 987.3
20260509070900 56 97 0.0 1.0 0.00 0.00 0.00 52 987.4
20260509070356 56 97 0.0 1.0 0.00 0.00 0.00 52 987.3
20260509065852 56 97 0.0 1.0 0.00 0.00 0.00 52 987.2
20260509065349 56 97 1.0 1.0 0.00 0.00 0.00 52 987.4
20260509064844 56 97 0.0 1.0 0.00 0.00 0.00 53 987.4
20260509064342 56 97 1.0 1.0 0.00 0.00 0.00 52 987.4
20260509063840 56 97 0.0 1.0 0.00 0.00 0.00 52 987.3
20260509063336 56 97 1.0 1.0 0.00 0.00 0.00 51 987.5
20260509062833 57 97 1.0 1.0 0.00 0.00 0.00 51 987.5
20260509062330 57 97 0.0 1.0 0.00 0.00 0.00 51 987.4
20260509061827 57 97 1.0 1.0 0.00 0.00 0.00 50 987.6
20260509061326 57 97 2.0 2.0 0.00 0.00 0.00 50 987.6
20260509060822 0 0.0 0.0 0.00 0.00 0.00 987.5
20260509060319 57 81 2.0 2.0 0.00 0.00 0.00 50 987.5
20260509055814 57 81 2.0 2.0 0.00 0.00 0.00 50 987.7
20260509055310 57 86 2.0 2.0 0.00 0.00 0.00 50 987.9
20260509054807 57 88 2.0 3.0 0.00 0.00 0.00 51 987.9
20260509054304 57 93 2.0 3.0 0.00 0.00 0.00 51 987.7
20260509053802 57 80 2.0 2.0 0.00 0.00 0.00 50 987.7
20260509053259 58 91 2.0 2.0 0.00 0.00 0.00 51 987.5
20260509052757 0 0.0 0.0 0.00 0.00 0.00 987.9
20260509052254 58 87 2.0 3.0 0.00 0.00 0.00 51 987.8
20260509051752 58 87 2.0 3.0 0.00 0.00 0.00 51 987.7
20260509051250 58 87 2.0 2.0 0.00 0.00 0.00 50 987.7
20260509050746 58 83 1.0 2.0 0.00 0.00 0.00 50 987.9
20260509050243 58 84 2.0 2.0 0.00 0.00 0.00 50 987.8
20260509045740 0 0.0 0.0 0.00 0.00 0.00 988.0
20260509045237 0 0.0 0.0 0.00 0.00 0.00 987.9
20260509044734 58 95 1.0 1.0 0.00 0.00 0.00 51 987.9
20260509044232 58 95 1.0 1.0 0.00 0.00 0.00 51 987.8
20260509043728 58 95 1.0 1.0 0.00 0.00 0.00 51 987.6
20260509043224 59 95 1.0 1.0 0.00 0.00 0.00 50 987.8
20260509042720 59 95 1.0 1.0 0.00 0.00 0.00 50 987.8
20260509042217 59 95 1.0 2.0 0.00 0.00 0.00 50 987.5
20260509041714 58 88 2.0 2.0 0.00 0.00 0.00 51 987.6
20260509041210 0 0.0 0.0 0.00 0.00 0.00 987.7
20260509040709 0 0.0 0.0 0.00 0.00 0.00 987.8
20260509040205 0 0.0 0.0 0.00 0.00 0.00 987.8
20260509035702 0 0.0 0.0 0.00 0.00 0.00 987.6
20260509035159 0 0.0 0.0 0.00 0.00 0.00 987.7
20260509034656 59 84 2.0 3.0 0.00 0.00 0.00 50 987.7
20260509034153 59 84 2.0 3.0 0.00 0.00 0.00 50 987.7
20260509033650 59 87 2.0 2.0 0.00 0.00 0.00 50 987.7
20260509033147 59 93 2.0 2.0 0.00 0.00 0.00 50 988.0
20260509032645 59 93 2.0 2.0 0.00 0.00 0.00 50 988.0
20260509032141 0 0.0 0.0 0.00 0.00 0.00 987.8
20260509031639 0 0.0 0.0 0.00 0.00 0.00 987.8
20260509031136 0 0.0 0.0 0.00 0.00 0.00 987.7
20260509030635 0 0.0 0.0 0.00 0.00 0.00 987.7
20260509030132 0 0.0 0.0 0.00 0.00 0.00 987.8
20260509025627 0 0.0 0.0 0.00 0.00 0.00 987.7
20260509025123 0 0.0 0.0 0.00 0.00 0.00 987.8
20260509024619 0 0.0 0.0 0.00 0.00 0.00 987.9
20260509024115 0 0.0 0.0 0.00 0.00 0.00 987.9
20260509023613 0 0.0 0.0 0.00 0.00 0.00 988.1
20260509023110 0 0.0 0.0 0.00 0.00 0.00 987.8
20260509022606 0 0.0 0.0 0.00 0.00 0.00 988.0
20260509022104 0 0.0 0.0 0.00 0.00 0.00 987.9
20260509021601 0 0.0 0.0 0.00 0.00 0.00 988.0
20260509021058 0 0.0 0.0 0.00 0.00 0.00 987.8
20260509020557 0 0.0 0.0 0.00 0.00 0.00 987.8
20260509020053 0 0.0 0.0 0.00 0.00 0.00 987.7
20260509015552 62 93 1.0 1.0 0.00 0.00 0.00 46 987.6
20260509015049 62 93 1.0 1.0 0.00 0.00 0.00 46 987.5
20260509014545 62 93 1.0 1.0 0.00 0.00 0.00 45 987.7
20260509014042 62 93 1.0 1.0 0.00 0.00 0.00 45 987.5
20260509013539 0 0.0 0.0 0.00 0.00 0.00 987.4
20260509013034 63 86 2.0 3.0 0.00 0.00 0.00 43 987.5
20260509012531 63 86 2.0 3.0 0.00 0.00 0.00 43 987.3
20260509012028 63 79 1.0 2.0 0.00 0.00 0.00 44 987.3
20260509011526 63 79 1.0 2.0 0.00 0.00 0.00 44 987.5
20260509011023 0 0.0 0.0 0.00 0.00 0.00 987.4
20260509010521 63 93 1.0 1.0 0.00 0.00 0.00 43 987.3
20260509010017 63 93 1.0 1.0 0.00 0.00 0.00 43 987.2
20260509005515 63 94 1.0 1.0 0.00 0.00 0.00 43 987.1
20260509005015 63 94 1.0 1.0 0.00 0.00 0.00 43 987.1
20260509004512 0 0.0 0.0 0.00 0.00 0.00 987.2
20260509004009 0 0.0 0.0 0.00 0.00 0.00 987.0
20260509003508 0 0.0 0.0 0.00 0.00 0.00 987.2
20260509003004 0 0.0 0.0 0.00 0.00 0.00 987.1
20260509002502 0 0.0 0.0 0.00 0.00 0.00 987.2
20260509001959 0 0.0 0.0 0.00 0.00 0.00 987.0
20260509001455 0 0.0 0.0 0.00 0.00 0.00 986.8
20260509000952 0 0.0 0.0 0.00 0.00 0.00 986.8
20260509000451 0 0.0 0.0 0.00 0.00 0.00 986.8
20260508235946 0 0.0 0.0 0.00 0.00 0.00 986.7
20260508235444 0 0.0 0.0 0.00 0.00 0.00 986.8
20260508234940 67 68 0.0 1.0 0.00 0.00 0.00 36 986.7
20260508234437 67 68 0.0 1.0 0.00 0.00 0.00 36 986.6
20260508233935 0 0.0 0.0 0.00 0.00 0.00 986.8
20260508233434 0 0.0 0.0 0.00 0.00 0.00 986.7
20260508232930 0 0.0 0.0 0.00 0.00 0.00 986.6
20260508232428 0 0.0 0.0 0.00 0.00 0.00 986.5
20260508231925 0 0.0 0.0 0.00 0.00 0.00 986.5
20260508231422 69 87 2.0 2.0 0.00 0.00 0.00 33 986.5
20260508230919 69 87 2.0 2.0 0.00 0.00 0.00 33 986.7
20260508230415 70 90 2.0 2.0 0.00 0.00 0.00 33 986.6
20260508225912 70 90 2.0 2.0 0.00 0.00 0.00 33 986.5
20260508225409 70 91 2.0 2.0 0.00 0.00 0.00 33 986.6
20260508224907 71 99 1.0 2.0 0.00 0.00 0.00 31 986.4
20260508224404 71 94 1.0 1.0 0.00 0.00 0.00 31 986.5
20260508223902 71 105 2.0 2.0 0.00 0.00 0.00 31 986.6
20260508223359 70 82 1.0 2.0 0.00 0.00 0.00 30 986.5
20260508222856 70 82 1.0 2.0 0.00 0.00 0.00 30 986.5